• MPC Preparation (Info)

  • MPEC 2016-O58 : 2014 TX85

    The following Minor Planet Electronic Circular may be linked-to from your own Web pages, but must not otherwise be redistributed electronically.

    A form allowing access to any MPEC is at the bottom of this page.


    Read MPEC 2016-O57 Read MPEC 2016-O59


    M.P.E.C. 2016-O58                                Issued 2016 July 16, 21:57 UT
    
         The Minor Planet Electronic Circulars contain information on unusual
             minor planets and routine data on comets.  They are published
        on behalf of Division F of the International Astronomical Union by the
              Minor Planet Center, Smithsonian Astrophysical Observatory,
                              Cambridge, MA 02138, U.S.A.
    
                 Prepared using the Tamkin Foundation Computer Network
    
                                  MPC@CFA.HARVARD.EDU
                URL https://www.minorplanetcenter.net/    ISSN 1523-6714
    
                                       2014 TX85
    
    Observations:
         K14T85X  C2010 11 02.43232 02 25 15.796+07 52 04.46         22.1 wLEO058F51
         K14T85X  C2010 11 02.44757 02 25 15.707+07 52 04.07         22.4 wLEO058F51
         K14T85X  C2010 11 02.47545 02 25 15.571+07 52 03.01         22.2 wLEO058F51
         K14T85X  C2012 10 18.38656 02 40 44.826+07 51 01.59         22.4 wLEO058F51
         K14T85X  C2012 10 18.40171 02 40 44.756+07 51 01.12         22.5 wLEO058F51
         K14T85X  C2012 10 18.41689 02 40 44.669+07 51 00.68         22.1 wLEO058F51
         K14T85X  C2012 10 18.43217 02 40 44.610+07 51 00.05         22.5 wLEO058F51
         K14T85X  C2013 11 24.29210 02 44 41.832+07 27 24.59         22.4 wLEO058F51
         K14T85X  C2013 11 24.30541 02 44 41.758+07 27 24.34         22.4 wLEO058F51
         K14T85X  C2013 11 24.31870 02 44 41.682+07 27 23.79         22.4 wLEO058F51
         K14T85X  C2013 11 24.33205 02 44 41.620+07 27 23.49         22.5 wLEO058F51
         K14T85X* C2014 10 02.44457 02 56 13.411+07 49 01.96         22.6 wLEO058F51
         K14T85X  C2014 10 02.45646 02 56 13.351+07 49 01.72         22.3 wLEO058F51
         K14T85X  C2014 10 02.46835 02 56 13.313+07 49 01.21         22.6 wLEO058F51
         K14T85X  C2014 10 02.48024 02 56 13.259+07 49 00.68         22.4 wLEO058F51
         K14T85X  C2014 10 28.42868 02 54 11.196+07 34 43.27         22.2 wLEO058F51
         K14T85X  C2014 10 28.43948 02 54 11.147+07 34 43.11         22.1 wLEO058F51
         K14T85X  C2014 10 28.46098 02 54 11.037+07 34 42.72         22.4 wLEO058F51
         K14T85X  C2014 11 23.31969 02 51 54.756+07 22 16.62         22.5 wLEO058F51
         K14T85X  C2014 11 23.33208 02 51 54.668+07 22 16.53         22.3 wLEO058F51
         K14T85X  C2014 11 23.34450 02 51 54.605+07 22 16.31         22.4 wLEO058F51
         K14T85X  C2014 11 23.35693 02 51 54.572+07 22 16.06         22.2 wLEO058F51
         K14T85X  C2014 12 11.26534 02 50 30.324+07 16 08.23         22.2 wLEO058F51
         K14T85X  C2014 12 11.28057 02 50 30.252+07 16 08.19         22.4 wLEO058F51
         K14T85X  C2014 12 11.29206 02 50 30.213+07 16 07.85         22.3 wLEO058F51
         K14T85X  C2014 12 13.34770 02 50 21.677+07 15 35.51         22.3 wLEO058F51
         K14T85X  C2014 12 13.36063 02 50 21.629+07 15 35.63         22.3 wLEO058F51
         K14T85X  C2014 12 13.37358 02 50 21.527+07 15 35.39         22.4 wLEO058F51
         K14T85X  C2015 01 22.23392 02 48 48.570+07 13 05.46         22.4 wLEO058F51
         K14T85X  C2015 01 22.24928 02 48 48.569+07 13 05.65         22.6 wLEO058F51
         K14T85X  C2015 01 22.26463 02 48 48.563+07 13 05.78         22.5 wLEO058F51
         K14T85X  C2015 01 22.28004 02 48 48.555+07 13 05.98         22.5 wLEO058F51
    
    Observer details:
    F51 Pan-STARRS 1, Haleakala.  Observers B. Gibson, T. Goggia, N. Primak,
        A. Schultz, M. Willman.  Measurers K. Chambers, S. Chastel, Y.-T. Chen,
        L. Denneau, H. Flewelling, M. Holman, M. Huber, R. Jedicke, M. Lackner,
        E. Lilly, H.-W. Lin, E. Magnier, M. Micheli, M. Payne, P. Veres,
        R. Wainscoat, C. Waters, R. Weryk.  1.8-m Ritchey-Chretien + CCD.
    
    Orbital elements:
    2014 TX85
    Epoch 2016 July 31.0 TT = JDT 2457600.5                 MPC
    M 349.74762              (2000.0)            P               Q
    n   0.00382883     Peri.  218.86342     +0.51124588     -0.84852412
    a  40.4661312      Node   201.48733     +0.85178345     +0.52140902
    e   0.1035538      Incl.   21.88050     +0.11442289     -0.09021891
    P 257              H    6.6           G   0.15           U   3
    Residuals in seconds of arc
    101102 F51  0.0   0.0     141002 F51  0.1+  0.2+    141211 F51  0.1+  0.2-
    101102 F51  0.1-  0.1+    141002 F51  0.1-  0.3+    141211 F51  0.0   0.0
    101102 F51  0.1+  0.1-    141002 F51  0.1+  0.2+    141211 F51  0.1+  0.2-
    121018 F51  0.1-  0.0     141002 F51  0.0   0.0     141213 F51  0.1-  0.4-
    121018 F51  0.0   0.0     141028 F51  0.2-  0.3-    141213 F51  0.0   0.1-
    121018 F51  0.1-  0.1+    141028 F51  0.1-  0.1-    141213 F51  0.7-  0.2-
    121018 F51  0.2+  0.0     141028 F51  0.0   0.2+    150122 F51  0.1+  0.1-
    131124 F51  0.1+  0.1+    141123 F51  0.2+  0.1-    150122 F51  0.2+  0.0
    131124 F51  0.0   0.2+    141123 F51  0.1-  0.1+    150122 F51  0.2+  0.0
    131124 F51  0.1-  0.1-    141123 F51  0.1-  0.2+    150122 F51  0.1+  0.1+
    131124 F51  0.0   0.0     141123 F51  0.4+  0.3+
    
    Ephemeris:
    2014 TX85                a,e,i = 40.47, 0.10, 22                 q = 36.276
    Date    TT    R. A. (2000) Decl.     Delta      r     Elong.  Phase     V
    2016 06 16    03 07 57.4 +08 01 55  37.1436 36.3616    39.2     1.0    22.4
    ...
    2016 07 01    03 09 21.6 +08 03 37  36.9667 36.3607    52.8     1.3    22.4
    ...
    2016 07 09    03 09 59.9 +08 03 47  36.8561 36.3602    60.1     1.4    22.4
    ...
    2016 07 15    03 10 25.1 +08 03 33  36.7672 36.3598    65.6     1.5    22.4
    2016 07 16    03 10 29.0 +08 03 29  36.7520 36.3597    66.6     1.5    22.4
    2016 07 17    03 10 32.8 +08 03 24  36.7366 36.3597    67.5     1.5    22.4
    ...
    2016 07 23    03 10 53.7 +08 02 45  36.6425 36.3593    73.1     1.5    22.4
    ...
    2016 07 31    03 11 16.2 +08 01 26  36.5125 36.3588    80.5     1.6    22.4
    ...
    2016 08 15    03 11 40.8 +07 57 35  36.2625 36.3579    94.6     1.6    22.4
    
    A. U. Tomatic                (C) Copyright 2016 MPC           M.P.E.C. 2016-O58
    

    Read MPEC 2016-O57 Read MPEC 2016-O59


    MPEC number:

    Enter an MPEC number in one of the following forms:

    • 1997-B01 (the full form)
    • J97B01 (the packed version of the full form)
    • B01 (the abbreviated form)